This is the latest recevied weather packets stored in our database for station/object DPX206-15. If no packets are shown the sender has not sent any weather packets the latest 10 day(s).
| Time | Temp. | Humidity | Pressure | Rain* | Wind** | Luminosity | Snow |
|---|---|---|---|---|---|---|---|
| 1777454562 | 11.67° C | 45% | 1029.9 hPa | 0 mm | - | 666 W/m² | - |
| 1777453812 | 11.67° C | 46% | 1030.1 hPa | 0 mm | - | 666 W/m² | - |
| 1777453061 | 11.67° C | 47% | 1030.1 hPa | 0 mm | - | 640 W/m² | - |
| 1777451561 | 12.22° C | 44% | 1030.1 hPa | 0 mm | - | 560 W/m² | - |
| 1777450811 | 11.67° C | 49% | 1030 hPa | 0 mm | - | 530 W/m² | - |
| 1777450060 | 11.67° C | 48% | 1030.1 hPa | 0 mm | - | 498 W/m² | - |
| 1777449310 | 10.56° C | 49% | 1029.6 hPa | 0 mm | - | 446 W/m² | - |
| 1777447809 | 10° C | 50% | 1029.5 hPa | 0 mm | - | 352 W/m² | - |
| 1777447059 | 10.56° C | 53% | 1029.6 hPa | 0 mm | - | 323 W/m² | - |
| 1777446309 | 10.56° C | 55% | 1029.6 hPa | 0 mm | - | 248 W/m² | - |
| 1777445559 | 10° C | 53% | 1029.2 hPa | 0 mm | - | 248 W/m² | - |
| 1777444808 | 9.44° C | 59% | 1029.2 hPa | 0 mm | - | 215 W/m² | - |
| 1777444058 | 8.33° C | 62% | 1028.8 hPa | 0 mm | - | 205 W/m² | - |
| 1777443308 | 7.78° C | 64% | 1029.1 hPa | 0 mm | - | 186 W/m² | - |
| 1777442558 | 7.22° C | 65% | 1028.7 hPa | 0 mm | - | 159 W/m² | - |
| 1777441807 | 6.67° C | 68% | 1028.3 hPa | 0 mm | - | 127 W/m² | - |
| 1777441057 | 6.11° C | 70% | 1028.5 hPa | 0 mm | - | 96 W/m² | - |
| 1777440307 | 5° C | 73% | 1028.3 hPa | 0 mm | - | 78 W/m² | - |
| 1777439556 | 4.44° C | 75% | 1028.4 hPa | 0 mm | - | 55 W/m² | - |
| 1777438806 | 3.33° C | 78% | 1028.1 hPa | 0 mm | - | 41 W/m² | - |
| 1777438056 | 1.67° C | 80% | 1028.2 hPa | 0 mm | - | 22 W/m² | - |
| 1777437306 | 0.56° C | 80% | 1028.1 hPa | 0 mm | - | 15 W/m² | - |
| 1777436556 | 0° C | 80% | 1027.9 hPa | 0 mm | - | 7 W/m² | - |
| 1777435055 | 0° C | 80% | 1028 hPa | 0 mm | - | 0 W/m² | - |
| 1777433555 | 0.56° C | 79% | 1027.8 hPa | 0 mm | - | 0 W/m² | - |
* Rain latest hour (hover to see other rain measurements)
** Current wind speed in m/s (hover to see current wind gust speed)